{"data":{"norad_id":61221,"epoch":"2026-09-22T17:26:05.316288Z","epoch_age_seconds":102104,"freshness":"FRESH","line1":"1 61221U 24172B   26265.72645042  .00001197  00000+0  19720-3 0  9998","line2":"2 61221  98.0409 354.5871 0001681 145.4666 214.6650 14.72329200107704","mean_motion":14.723292,"eccentricity":0.0001681,"inclination_deg":98.0409,"raan_deg":354.5871,"arg_perigee_deg":145.4666,"mean_anomaly_deg":214.665,"bstar":0.0001972,"rev_number":10770,"period_min":97.804213894556,"perigee_km":652.46014394681,"apogee_km":654.82422810915,"semimajor_km":7031.779186028,"source":"CELESTRAK","updated_at":"2026-09-23T09:00:20.854227Z"}}